Tracking 18032 objects as of 25-March-2017
HD Live streaming from Space Station
objects crossing your sky now

USA 158

Track USA 158 now!
USA 158 is classified as:


NORAD ID: 26770
Int'l Code: 2001-020A
Perigee: 36,140.2 km
Apogee: 36,262.9 km
Inclination: 6.1 °
Period: 1,457.0 minutes
Semi major axis: 42572 km
RCS: Unknown
Launch date: May 18, 2001
Source: United States (US)
Launch site: AIR FORCE EASTERN TEST RANGE (AFETR)

Advanced technology demonstration satellite with laser communications experiment and operational UHF communications mission.
Your satellite tracking list
Your tracking list is empty





NASA's NSSDC Master Catalog

Two Line Element Set (TLE):
1 26770U 01020A   16362.21817790 0.00000000  00000-0  00000-0 0    01
2 26770   6.0950  47.6169 0014408  47.5727 312.5803  0.98834359    07
Source of the keplerian elements: McCants